Home   Weather   Arlington   Past weeks

Flag for USA Past Weather in Arlington, Texas, USA — Yesterday and Last 2 Weeks

Now
43 °F

Clear.


Feels Like: 40 °F
Forecast: 44 / 79 °F
Wind: 5 mph from Northwest

Location: Arlington Municipal Airport

Current Time: May 1, 2017 at 1:25:25 am

Latest Report: May 1, 2017 at 12:53 am


Visibility: 10 mi

Pressure: 29.92 "Hg

Humidity: 76%

Dew Point: 36 °F

Location of ArlingtonLocation

Past Weather in Arlington — Graph

°F

Arlington Temperature Yesterday

Maximum temperature yesterday: 68 °F (at 2:53 pm)
Minimum temperature yesterday: 48 °F (at 6:53 am)
Average temperature yesterday: 57 °F

High & Low Weather Summary for the Past Weeks

 TemperatureHumidityPressure
High88 °F (Apr 29, 2:53 pm)97% (Apr 18, 1:53 am)30.17 "Hg (Apr 18, 1:53 am)
Low42 °F (Apr 24, 6:53 am)26% (Apr 30, 3:53 pm)29.38 "Hg (Apr 26, 1:53 am)
Average68 °F71%29.83 "Hg
* Reported Apr 15 11:53 pm — Apr 30 11:53 pm, Arlington, Weather by CustomWeather, © 2017

Note: Actual official high and low records may vary slightly from our data, if they occured in-between our weather recording intervals... More about our weather records

Advertising

Arlington Weather History for the Previous 24 Hours

Scroll right to see more
 ConditionsComfort  
Time TempWeatherWind HumidityBarometerVisibility
11:53 pm
Sun, Apr 30
51 °FClear.3 mph54%29.92 "Hg10 mi
10:53 pm53 °FClear.5 mph47%29.92 "Hg10 mi
9:53 pm57 °FClear.6 mph37%29.91 "Hg10 mi
8:53 pm59 °FClear.12 mph35%29.90 "Hg10 mi
7:53 pm61 °FSunny.17 mph32%29.87 "Hg10 mi
6:53 pm64 °FSunny.20 mph30%29.85 "Hg10 mi
5:53 pm67 °FSunny.22 mph26%29.82 "Hg10 mi
4:53 pm68 °FPassing clouds.17 mph26%29.79 "Hg10 mi
3:53 pm68 °FPassing clouds.23 mph26%29.78 "Hg10 mi
2:53 pm68 °FScattered clouds.16 mph27%29.78 "Hg10 mi
1:53 pm65 °FPartly sunny.20 mph29%29.79 "Hg10 mi
12:53 pm63 °FSunny.21 mph33%29.80 "Hg10 mi
11:53 am61 °FSunny.17 mph36%29.82 "Hg10 mi
10:53 am57 °FSunny.15 mph44%29.83 "Hg10 mi
9:53 am54 °FSunny.17 mph49%29.82 "Hg10 mi
8:53 am50 °FSunny.14 mph59%29.83 "Hg10 mi
7:53 am48 °FSunny.13 mph66%29.81 "Hg10 mi
6:53 am48 °FSunny.10 mph66%29.80 "Hg10 mi
5:53 am50 °FClear.14 mph68%29.74 "Hg10 mi
4:53 am51 °FPassing clouds.9 mph74%29.75 "Hg10 mi
3:53 am52 °FOvercast.8 mph77%29.75 "Hg10 mi
2:53 am52 °FPassing clouds.6 mph83%29.74 "Hg10 mi
2:36 am53 °FThundershowers. Overcast.8 mph80%29.82 "Hg10 mi
2:17 am53 °FLight rain. Mostly cloudy.8 mph77%29.81 "Hg10 mi
2:02 am54 °FThundershowers. Overcast.15 mph72%29.74 "Hg10 mi
Weather by CustomWeather, © 2017

See weather overviewHow to use our weather pages